STARLINK-2430, 48100

Orbit data source: Space-Track

STARLINK-2430, 48100 is a payload satellite owned by SpaceX/Seattle (US) in LEO that was launched on Wed, 07 Apr 2021 UTC via an FALCON 9 launch vehicle from the Air Force Eastern Test Range (AFETR). Payload-class satellites include a variety of spacecraft equipped with specific instruments for various scientific and technological missions. These include communications satellites like Starlink; space stations such as the ISS; scientific satellites like the Hubble; Earth observation satellites from companies like Planet Labs, Umbra, and HawkEye 360; GPS; miniature CubeSats for education and research; and military/defense satellites.

Loading next visibility...
Identifier
48100, 2021-027J
Orbit
LEO
Country
Flag of USUS
Related business
Manufacturer
SpaceX/Seattle
Mission
Operational Commercial Communications
Bus & Motor
STARLINK, Unknown motor
Mass
260 kg wet, ~248 kg dry
Launch date (UTC)
2021-04-07 (5 years ago)
Launch vehicle
FALCON 9
Launch site
Air Force Eastern Test Range (AFETR)
Object type
Payload
Rocket body
Debris
Shape & HBR
Box + 1 Pan, 10.1 m
Radar Cross Section
13.562 m², Large (>1 m²)

Expand to show TLE details & history
Last TLE update: 2 days ago

TLE from 2 days ago
0 STARLINK-2430
1 48100U 21027J   26171.34682289  .00001364  00000-0  55688-4 0  9994
2 48100  53.1616  34.8985 0000998  90.4630 269.6486 15.31703445288419
Epoch: 2026-06-20T08:19Z
TLE epoch observation values (Epoch: 2026-06-20T08:19:25.497Z)
Latitude
-0.00002°
Longitude
1.47949°
Altitude
471.634 km
Speed
7.631 km/s
True Right ascension
02h 19m 35s
True Declination
0° 00' 00"
Sunlit
Object was in daylight at epoch
Visualization orbit readout
Latitude
Unknown
Longitude
Unknown
Altitude
Unknown
Speed
Unknown
Apparent Right ascension
Unknown
Apparent Declination
Unknown
Sunlit
N/A
Visualization observer readout
Local Sidereal Time
23:08:44
Azimuth
Unknown
Elevation
Unknown
Doppler factor
Unknown
Orbital elements
Apogee altitude
471.67 km
Perigee altitude
470.303 km
Semi-major axis
6,849.123 km
Eccentricity
0.0001
Inclination
53.1616°
RAAN
34.8985°
Arg. of periapsis
90.463°
True anomaly
269.63716°
Mean anomaly
269.6486°
Eccentric anomaly
269.64288°
Mean motion
3.82905 °/min
Orbital period
94.02 mins
BSTAR
0.000055688
Loading maneuver chart data...
Computing Atmospheric mass density...

Documentation

Showing up to 5 results
|